Flag for U.S.A. Weather past 2 weeks in Little Rock, Arkansas, U.S.A.

Now
66 °F

Thunderstorms. Mostly cloudy.


Feels Like: 66 °F
Forecast: 70 / 83 °F
Wind: 9 mph from Southwest

Location: Adams Field

Current Time: May 25, 2015 at 10:35:58 PM

Latest Report: May 25, 2015 at 9:53 PM


Visibility: 10 mi

Pressure: 29.99 "Hg

Humidity: 81%

Dew point: 60 °F

Location of Little RockLocation

Historic Weather in Little Rock — Graph

°F

Little Rock temperature yesterday

Maximum temperature yesterday: 85 °F (at 1:53 PM)
Minimum temperature yesterday: 71 °F (at 11:53 PM)
Average temperature yesterday: 75 °F

Past Weeks' High & Low Weather Summary

 TemperatureHumidityPressure
High85 °F (May 17, 4:53 PM)94% (May 11, 8:53 AM)30.34 "Hg (May 11, 8:53 AM)
Low52 °F (May 22, 3:53 AM)37% (May 12, 1:53 PM)29.88 "Hg (May 24, 3:53 PM)
Average71 °F72%30.09 "Hg
* Reported May 10 9:53 PM — May 25 9:01 PM, Little Rock, Weather by CustomWeather, © 2015

Note: Actual official high and low records may vary slightly from our data, if they occured in-between our weather recording intervals... More about our weather records

Advertising

Little Rock weather history for previous 24 hours

 ConditionsComfort  
Time TempWeatherWind HumidityBarometerVisibility
9:01 PM
Mon, May 25
64 °FStrong thunderstorms. Cloudy.25 mph88%29.98 "Hg1 mi
7:53 PM74 °FMore clouds than sun.7 mph79%29.90 "Hg10 mi
6:53 PM75 °FThunderstorms. Cloudy.6 mph74%29.93 "Hg10 mi
5:53 PM83 °FBroken clouds.9 mph59%29.92 "Hg10 mi
4:53 PM84 °FBroken clouds.12 mph59%29.92 "Hg10 mi
3:53 PM83 °FBroken clouds.9 mph59%29.95 "Hg10 mi
2:53 PM83 °FPartly sunny.8 mph61%30.00 "Hg10 mi
1:53 PM82 °FPartly sunny.10 mph63%30.02 "Hg10 mi
12:53 PM79 °FPartly sunny.6 mph65%30.03 "Hg10 mi
11:53 AM77 °FMostly cloudy.10 mph69%30.03 "Hg10 mi
10:53 AM76 °FOvercast.9 mph69%30.03 "Hg10 mi
9:53 AM74 °FOvercast.10 mph79%30.03 "Hg10 mi
8:53 AM73 °FCloudy.7 mph84%30.03 "Hg10 mi
7:53 AM72 °FMostly cloudy.6 mph84%30.02 "Hg10 mi
6:53 AM71 °FOvercast.7 mph87%30.01 "Hg10 mi
5:53 AM71 °FFog.6 mph87%30.00 "Hg7 mi
4:53 AM71 °FFog.5 mph87%29.99 "Hg5 mi
3:53 AM71 °FFog.6 mph87%29.98 "Hg5 mi
2:53 AM70 °FFog.No wind90%29.96 "Hg6 mi
1:53 AM70 °FPassing clouds.5 mph90%29.95 "Hg7 mi
12:53 AM70 °FPartly cloudy.3 mph87%29.96 "Hg10 mi
11:53 PM
Sun, May 24
71 °FRain. Fog.8 mph84%29.98 "Hg5 mi
11:00 PM72 °FRain. Fog.13 mph88%29.98 "Hg4 mi
Weather by CustomWeather, © 2015

See weather overviewHow to use our weather pages